GW2158 Weather Reports


time (UTC)temp
C
wind
direction
speed
KPH
gust
KPH
rain 1hr
cm
rain 24hr
cm
rain mn
cm
humidity
%
barometer
mb
20260508174738 11 23 12.9 38.6 0.00 0.03 0.00 48 1006.1
20260508173208 11 23 17.7 40.2 0.00 0.03 0.00 47 1006.0
20260508172657 11 0 16.1 40.2 0.00 0.03 0.00 49 1006.1
20260508172148 11 0 16.1 40.2 0.00 0.03 0.00 48 1006.3
20260508171638 11 0 20.9 43.5 0.00 0.03 0.00 48 1006.1
20260508171127 11 23 22.5 43.5 0.00 0.03 0.00 48 1006.1
20260508170107 11 0 24.1 54.7 0.00 0.03 0.00 49 1006.4
20260508165557 11 338 27.4 38.6 0.00 0.03 0.00 49 1006.2
20260508165047 11 338 17.7 46.7 0.00 0.03 0.00 50 1006.4
20260508164537 11 0 20.9 48.3 0.00 0.03 0.00 49 1006.3
20260508164027 10 23 25.7 48.3 0.00 0.03 0.00 50 1006.6
20260508163517 11 23 24.1 37.0 0.00 0.03 0.00 50 1006.5
20260508163007 10 23 17.7 40.2 0.00 0.03 0.00 52 1006.2
20260508162457 10 338 24.1 40.2 0.00 0.03 0.00 51 1006.4
20260508161946 11 23 19.3 40.2 0.00 0.03 0.00 53 1006.5
20260508161440 10 45 11.3 38.6 0.00 0.03 0.00 52 1006.5
20260508160926 10 0 17.7 46.7 0.00 0.03 0.00 53 1006.7
20260508160416 10 338 17.7 46.7 0.00 0.03 0.00 53 1006.6
20260508155906 10 23 27.4 46.7 0.00 0.03 0.00 52 1006.7
20260508155356 10 315 20.9 48.3 0.00 0.03 0.00 52 1006.7
20260508154846 10 338 17.7 48.3 0.00 0.03 0.00 54 1006.7
20260508154336 10 23 17.7 46.7 0.00 0.03 0.00 55 1006.7
20260508153825 10 23 12.9 40.2 0.00 0.03 0.00 55 1006.9
20260508153315 10 23 25.7 49.9 0.00 0.03 0.00 55 1007.1
20260508152805 10 23 20.9 49.9 0.00 0.03 0.00 56 1006.9
20260508152255 10 45 17.7 40.2 0.00 0.03 0.00 56 1007.0
20260508150725 9 45 17.7 43.5 0.00 0.03 0.00 56 1007.3
20260508150215 9 338 24.1 43.5 0.00 0.03 0.00 57 1007.3
20260508145704 9 23 17.7 46.7 0.00 0.03 0.00 57 1007.2
20260508145154 9 0 14.5 46.7 0.00 0.03 0.00 59 1007.3
20260508144644 9 23 19.3 40.2 0.00 0.03 0.00 58 1007.2
20260508143114 8 23 24.1 43.5 0.00 0.03 0.00 59 1007.4
20260508142603 8 338 22.5 43.5 0.00 0.03 0.00 59 1007.4
20260508142053 8 23 16.1 40.2 0.00 0.03 0.00 59 1007.3
20260508141033 8 338 29.0 48.3 0.00 0.03 0.00 60 1007.7
20260508140524 8 338 12.9 48.3 0.00 0.03 0.00 61 1007.6
20260508140013 8 338 17.7 48.3 0.00 0.03 0.00 60 1007.8
20260508135503 8 338 24.1 48.3 0.00 0.03 0.00 60 1007.6
20260508134953 8 0 17.7 48.3 0.00 0.03 0.00 61 1007.6
20260508134443 7 0 25.7 48.3 0.00 0.03 0.00 60 1007.5
20260508133932 7 0 30.6 48.3 0.00 0.03 0.00 61 1007.7
20260508132402 7 23 24.1 54.7 0.00 0.03 0.00 61 1007.4
20260508131852 7 0 20.9 51.5 0.00 0.03 0.00 62 1007.3
20260508131342 7 338 32.2 51.5 0.00 0.03 0.00 62 1007.2
20260508130832 7 338 20.9 43.5 0.00 0.03 0.00 64 1007.2
20260508125812 7 338 27.4 51.5 0.00 0.03 0.00 63 1007.2
20260508125305 7 23 24.1 51.5 0.00 0.03 0.00 64 1007.1
20260508124752 7 338 20.9 43.5 0.00 0.03 0.00 64 1007.3
20260508124242 7 338 24.1 43.5 0.00 0.03 0.00 64 1007.3
20260508123733 7 23 24.1 43.5 0.00 0.03 0.00 65 1007.3
20260508123229 6 315 17.7 40.2 0.00 0.03 0.00 67 1006.9
20260508122711 6 0 17.7 40.2 0.00 0.03 0.00 68 1007.3
20260508121651 6 338 25.7 38.6 0.00 0.03 0.00 69 1007.3
20260508121143 6 23 19.3 38.6 0.00 0.03 0.00 69 1006.9
20260508120631 6 23 17.7 33.8 0.00 0.03 0.00 70 1006.9
20260508120121 6 0 19.3 38.6 0.00 0.03 0.00 70 1006.9
20260508115610 6 45 20.9 38.6 0.00 0.03 0.00 71 1006.9
20260508115100 6 23 17.7 40.2 0.00 0.03 0.00 71 1006.8
20260508114550 6 338 22.5 40.2 0.00 0.03 0.00 71 1006.8
20260508114040 6 23 17.7 37.0 0.00 0.03 0.00 72 1006.4
20260508113530 6 338 17.7 37.0 0.00 0.03 0.00 72 1006.5
20260508113020 6 0 24.1 37.0 0.00 0.03 0.00 71 1006.3
20260508111450 7 68 19.3 43.5 0.00 0.03 0.00 72 1006.2
20260508110940 7 90 24.1 46.7 0.00 0.03 0.00 71 1006.1
20260508110430 7 113 24.1 46.7 0.00 0.03 0.00 72 1006.0
20260508105919 7 135 19.3 46.7 0.00 0.03 0.00 72 1006.3
20260508105413 7 90 12.9 38.6 0.00 0.03 0.00 73 1006.0
20260508104904 7 113 20.9 38.6 0.00 0.03 0.00 72 1005.9
20260508104353 7 90 17.7 33.8 0.00 0.03 0.00 72 1006.2
20260508103333 7 90 16.1 37.0 0.00 0.03 0.00 73 1005.8
20260508101802 7 90 16.1 33.8 0.00 0.03 0.00 74 1005.9
20260508101252 7 90 19.3 33.8 0.00 0.03 0.00 74 1005.8
20260508100742 7 113 16.1 33.8 0.00 0.03 0.00 74 1005.8
20260508100232 7 90 12.9 33.8 0.00 0.03 0.00 75 1005.8
20260508095722 7 90 19.3 38.6 0.00 0.03 0.00 74 1005.6
20260508095212 7 90 14.5 38.6 0.00 0.03 0.00 74 1005.7
20260508094702 7 90 19.3 35.4 0.00 0.03 0.00 73 1005.6
20260508094151 7 90 19.3 35.4 0.00 0.03 0.00 73 1005.4
20260508093132 7 90 24.1 33.8 0.00 0.03 0.00 73 1005.3
20260508092621 7 90 20.9 33.8 0.00 0.03 0.00 73 1005.1
20260508092112 7 113 14.5 33.8 0.00 0.03 0.00 73 1005.1
20260508091601 7 90 24.1 32.2 0.00 0.03 0.00 72 1004.9
20260508091051 7 90 20.9 33.8 0.00 0.03 0.00 73 1004.8
20260508090541 7 90 20.9 33.8 0.00 0.03 0.00 73 1004.7
20260508090031 7 90 22.5 32.2 0.00 0.03 0.00 73 1004.9
20260508085520 7 90 16.1 32.2 0.00 0.03 0.00 74 1004.8
20260508084500 7 68 22.5 35.4 0.00 0.03 0.00 74 1004.7
20260508083952 7 68 17.7 38.6 0.00 0.03 0.00 73 1004.7
20260508083440 7 68 17.7 38.6 0.00 0.03 0.00 72 1004.8
20260508082420 7 68 27.4 40.2 0.00 0.03 0.00 71 1004.7
20260508080849 7 45 19.3 38.6 0.00 0.03 0.00 70 1004.6
20260508080339 8 0 17.7 38.6 0.00 0.03 0.00 69 1004.7
20260508075320 8 23 17.7 37.0 0.00 0.03 0.00 69 1004.9
20260508073749 8 45 14.5 43.5 0.00 0.03 0.00 69 1004.9
20260508073238 8 0 17.7 38.6 0.00 0.03 0.00 69 1004.9
20260508072219 8 0 17.7 43.5 0.00 0.03 0.00 68 1004.9
20260508071709 8 23 24.1 43.5 0.00 0.03 0.00 66 1004.8
20260508071159 8 68 20.9 40.2 0.00 0.03 0.00 66 1005.0
20260508070648 8 23 24.1 43.5 0.00 0.03 0.00 66 1005.1
20260508070138 8 0 17.7 43.5 0.00 0.03 0.00 67 1004.8
20260508065628 8 0 17.7 35.4 0.00 0.03 0.00 67 1005.0
20260508065118 8 0 17.7 40.2 0.00 0.03 0.00 68 1004.9
20260508064608 8 0 19.3 40.2 0.00 0.03 0.00 67 1005.1
20260508064058 8 45 25.7 43.5 0.00 0.03 0.00 67 1004.9
20260508063037 8 23 16.1 40.2 0.00 0.03 0.00 69 1005.2
20260508062527 8 0 17.7 40.2 0.00 0.03 0.00 70 1005.2
20260508062017 8 45 17.7 38.6 0.00 0.03 0.00 71 1005.2
20260508061511 8 23 20.9 38.6 0.00 0.03 0.00 70 1005.4
20260508060957 8 23 22.5 33.8 0.00 0.03 0.00 68 1005.3
20260508060446 8 45 17.7 33.8 0.00 0.03 0.00 67 1005.5
20260508055937 8 23 17.7 35.4 0.00 0.03 0.00 65 1005.2
20260508055426 8 338 22.5 43.5 0.00 0.03 0.00 65 1005.2
20260508054407 8 0 20.9 37.0 0.00 0.03 0.00 65 1005.4
20260508053856 8 338 17.7 38.6 0.00 0.03 0.00 64 1005.1
20260508053347 8 338 20.9 40.2 0.00 0.03 0.00 63 1005.0
20260508052836 9 68 25.7 40.2 0.00 0.03 0.00 62 1005.2
20260508052326 9 0 19.3 38.6 0.00 0.03 0.00 65 1005.3
20260508051816 9 68 19.3 35.4 0.00 0.03 0.00 65 1005.2
20260508051306 9 23 16.1 35.4 0.00 0.03 0.00 66 1005.3
20260508045736 9 23 19.3 33.8 0.00 0.03 0.00 72 1005.3
20260508045225 9 45 16.1 33.8 0.00 0.03 0.00 73 1005.2
20260508044205 9 45 14.5 33.8 0.00 0.03 0.00 73 1005.2
20260508043655 9 45 11.3 33.8 0.00 0.03 0.00 73 1005.2
20260508042125 9 338 14.5 35.4 0.00 0.03 0.00 71 1005.4
20260508041614 9 23 20.9 32.2 0.00 0.03 0.00 71 1005.2
20260508041104 9 23 17.7 32.2 0.00 0.03 0.00 72 1005.2
20260508040555 9 23 14.5 32.2 0.00 0.03 0.00 74 1005.1
20260508040044 9 45 11.3 32.2 0.00 0.03 0.00 74 1005.3
20260508035534 9 0 17.7 33.8 0.00 0.03 0.00 73 1005.2
20260508035023 9 23 16.1 33.8 0.00 0.03 0.00 72 1005.3
20260508034514 9 338 16.1 40.2 0.00 0.03 0.00 72 1005.3
20260508034004 9 23 14.5 40.2 0.00 0.03 0.00 72 1005.2
20260508033454 9 338 17.7 32.2 0.00 0.03 0.00 73 1005.4
20260508032943 9 45 17.7 32.2 0.00 0.03 0.00 73 1005.5
20260508032433 9 0 19.3 32.2 0.00 0.03 0.00 75 1005.4
20260508031923 9 338 14.5 38.6 0.00 0.03 0.00 75 1005.4
20260508031413 9 338 16.1 38.6 0.00 0.03 0.00 75 1005.5
20260508030903 9 0 17.7 29.0 0.00 0.03 0.00 74 1005.5
20260508030353 9 315 16.1 29.0 0.00 0.03 0.00 74 1005.2
20260508025333 9 338 19.3 27.4 0.00 0.03 0.03 74 1005.5
20260508024823 9 315 17.7 29.0 0.00 0.03 0.03 75 1005.4
20260508024313 9 0 12.9 29.0 0.00 0.03 0.03 76 1005.4
20260508023803 9 23 12.9 35.4 0.00 0.03 0.03 77 1005.7
20260508023252 9 23 20.9 35.4 0.00 0.03 0.03 76 1005.9
20260508022742 9 23 17.7 33.8 0.00 0.03 0.03 77 1005.7
20260508021722 10 23 14.5 35.4 0.00 0.03 0.03 75 1005.7
20260508021212 10 338 19.3 35.4 0.00 0.03 0.03 74 1005.7
20260508020702 10 23 9.7 35.4 0.00 0.03 0.03 74 1005.7
20260508020151 10 0 17.7 37.0 0.00 0.03 0.03 73 1005.5
20260508015641 10 0 25.7 37.0 0.00 0.03 0.03 72 1005.6
20260508015131 10 0 17.7 40.2 0.00 0.03 0.03 73 1005.7
20260508014621 10 23 20.9 40.2 0.00 0.03 0.03 74 1005.6
20260508014111 9 0 19.3 43.5 0.00 0.03 0.03 75 1005.6
20260508013601 9 0 17.7 43.5 0.00 0.03 0.03 76 1005.4
20260508013051 9 0 16.1 40.2 0.00 0.03 0.03 78 1005.6
20260508012544 9 0 14.5 40.2 0.00 0.03 0.03 77 1005.7
20260508012032 9 338 25.7 37.0 0.00 0.03 0.03 77 1005.4
20260508011526 10 0 22.5 43.5 0.00 0.03 0.03 76 1005.6
20260508010501 10 23 20.9 49.9 0.00 0.03 0.03 77 1005.9
20260508005441 10 23 25.7 43.5 0.00 0.03 0.03 78 1006.2
20260508004930 10 45 24.1 43.5 0.00 0.03 0.03 80 1005.9
20260508004420 9 338 22.5 46.7 0.00 0.03 0.03 80 1006.1
20260508003909 10 0 25.7 49.9 0.03 0.03 0.03 80 1005.9
20260508002850 9 0 24.1 46.7 0.03 0.03 0.03 82 1005.9
20260508002340 9 338 30.6 48.3 0.03 0.03 0.03 83 1005.8
20260508001830 9 45 24.1 48.3 0.03 0.03 0.03 85 1005.9
20260508001320 9 0 27.4 48.3 0.03 0.03 0.03 85 1005.8
20260508000809 9 0 24.1 48.3 0.03 0.03 0.03 86 1005.8
20260508000259 9 0 20.9 43.5 0.03 0.03 0.03 88 1005.7
20260507235749 9 0 27.4 43.5 0.03 0.03 0.03 90 1005.8
20260507235239 8 338 24.1 48.3 0.03 0.03 0.03 91 1005.8
20260507234729 8 0 30.6 48.3 0.03 0.03 0.03 92 1005.6
20260507234219 8 248 33.8 48.3 0.03 0.03 0.03 92 1005.7
20260507233708 8 315 30.6 46.7 0.00 0.00 0.00 91 1005.6
20260507232648 9 338 29.0 51.5 0.00 0.00 0.00 89 1005.7
20260507232138 9 338 27.4 51.5 0.00 0.00 0.00 89 1005.5
20260507231629 9 0 29.0 51.5 0.00 0.00 0.00 91 1005.7
20260507231118 8 23 30.6 51.5 0.00 0.00 0.00 92 1005.2
20260507230057 8 0 27.4 48.3 0.00 0.00 0.00 93 1005.0
20260507225547 9 338 22.5 48.3 0.00 0.00 0.00 92 1004.9
20260507225037 9 23 25.7 49.9 0.00 0.00 0.00 91 1004.8
20260507224533 9 338 24.1 49.9 0.00 0.00 0.00 89 1004.8
20260507224017 10 0 30.6 46.7 0.00 0.00 0.00 88 1004.7
20260507223507 10 90 22.5 54.7 0.00 0.00 0.00 88 1005.0
20260507222957 10 0 24.1 54.7 0.00 0.00 0.00 87 1004.9
20260507222447 10 338 29.0 43.5 0.00 0.00 0.00 88 1004.7
20260507221937 10 338 25.7 46.7 0.00 0.00 0.00 88 1004.8
20260507220406 10 0 24.1 43.5 0.00 0.00 0.00 90 1004.9
20260507215856 10 45 17.7 37.0 0.00 0.00 0.00 91 1004.7
20260507215346 10 23 17.7 43.5 0.00 0.00 0.00 92 1004.6
20260507214836 10 338 29.0 43.5 0.00 0.00 0.00 92 1004.4
20260507214329 10 23 19.3 29.0 0.00 0.00 0.00 91 1004.7
20260507205704 10 338 22.5 43.5 0.00 0.10 0.00 90 1004.4
20260507203624 11 0 17.7 38.6 0.00 0.10 0.00 86 1004.2
20260507203114 11 338 27.4 40.2 0.00 0.10 0.00 86 1004.2
20260507202604 11 23 22.5 40.2 0.00 0.10 0.00 86 1004.2
20260507202054 11 23 20.9 40.2 0.00 0.10 0.00 85 1003.8
20260507201544 11 45 25.7 40.2 0.00 0.10 0.00 85 1003.6
20260507201034 11 0 24.1 43.5 0.00 0.10 0.00 85 1003.5
20260507200524 11 23 27.4 43.5 0.00 0.10 0.00 85 1003.3
20260507200014 11 0 27.4 38.6 0.00 0.10 0.00 85 1003.6
20260507195504 11 338 17.7 38.6 0.00 0.10 0.00 84 1003.6
20260507194953 11 338 22.5 38.6 0.00 0.10 0.00 84 1003.3
20260507194443 11 45 20.9 43.5 0.00 0.10 0.00 86 1003.1
20260507193933 11 45 20.9 43.5 0.00 0.10 0.00 87 1002.7
20260507193423 11 0 29.0 43.5 0.00 0.10 0.00 87 1002.9
20260507192912 11 0 27.4 43.5 0.00 0.10 0.00 84 1002.9
20260507192403 11 338 19.3 48.3 0.00 0.10 0.00 83 1003.1
20260507191856 11 0 27.4 48.3 0.00 0.10 0.00 82 1003.2
20260507191343 11 338 27.4 43.5 0.00 0.10 0.00 82 1003.5
20260507190832 11 0 32.2 48.3 0.00 0.10 0.00 83 1003.7
20260507190323 11 45 27.4 48.3 0.00 0.10 0.00 83 1004.1
20260507185305 12 23 24.1 43.5 0.00 0.10 0.00 83 1003.9
20260507184752 12 0 24.1 43.5 0.00 0.10 0.00 82 1004.1
20260507183732 12 338 30.6 49.9 0.00 0.10 0.00 83 1004.4
20260507183221 12 0 24.1 46.7 0.00 0.10 0.00 84 1004.3
20260507182712 12 315 27.4 37.0 0.00 0.10 0.00 84 1004.2
20260507182201 12 338 24.1 38.6 0.00 0.10 0.00 85 1004.3
20260507181651 12 0 22.5 43.5 0.00 0.10 0.00 85 1004.2
20260507181141 12 0 27.4 43.5 0.00 0.10 0.00 86 1004.3
20260507180634 12 45 25.7 43.5 0.00 0.10 0.00 87 1004.2
20260507180133 11 45 16.1 33.8 0.00 0.13 0.00 88 1004.2